FW5773 Weather Reports


time (UTC)temp
C
wind
direction
speed
KPH
gust
KPH
rain 1hr
cm
rain 24hr
cm
rain mn
cm
humidity
%
barometer
mb
20260503021749 12 205 0.0 0.0 0.00 0.00 0.00 84 1015.2
20260503021233 12 205 0.0 1.6 0.00 0.00 0.00 83 1015.1
20260503020800 12 205 0.0 1.6 0.00 0.00 0.00 84 1015.3
20260503020257 12 238 0.0 3.2 0.00 0.00 0.00 84 1015.3
20260503015723 12 266 0.0 3.2 0.00 0.00 0.00 84 1015.4
20260503015222 12 252 0.0 0.0 0.00 0.00 0.00 83 1015.4
20260503014728 12 252 0.0 0.0 0.00 0.00 0.00 82 1015.3
20260503014255 12 247 0.0 0.0 0.00 0.00 0.00 82 1015.1
20260503013733 12 43 0.0 0.0 0.00 0.00 0.00 82 1015.0
20260503013300 12 43 0.0 0.0 0.00 0.00 0.00 82 1015.0
20260503012738 12 43 0.0 0.0 0.00 0.00 0.00 81 1015.2
20260503012245 13 43 0.0 0.0 0.00 0.00 0.00 81 1015.2
20260503011745 13 43 0.0 0.0 0.00 0.00 0.00 81 1015.3
20260503011221 13 43 0.0 0.0 0.00 0.00 0.00 80 1015.4
20260503010748 13 43 0.0 0.0 0.00 0.00 0.00 80 1015.4
20260503010304 13 43 0.0 0.0 0.00 0.00 0.00 81 1015.5
20260503005729 13 43 0.0 0.0 0.00 0.00 0.00 81 1015.5
20260503005256 13 43 0.0 0.0 0.00 0.00 0.00 81 1015.6
20260503004759 13 43 0.0 0.0 0.00 0.00 0.00 81 1015.7
20260503004221 13 43 0.0 0.0 0.00 0.00 0.00 81 1015.8
20260503003805 13 43 0.0 0.0 0.00 0.00 0.00 82 1015.8
20260503003221 12 43 0.0 0.0 0.00 0.00 0.00 82 1015.8
20260503002808 12 43 0.0 0.0 0.00 0.00 0.00 81 1015.9
20260503002226 13 43 0.0 0.0 0.00 0.00 0.00 81 1015.9
20260503001725 13 43 0.0 0.0 0.00 0.00 0.00 81 1015.9
20260503001232 13 43 0.0 0.0 0.00 0.00 0.00 81 1015.8
20260503000759 13 43 0.0 0.0 0.00 0.00 0.00 80 1015.9
20260503000249 13 43 0.0 0.0 0.00 0.00 0.00 80 1015.9
20260502235722 13 13 0.0 0.0 0.00 0.00 0.00 80 1016.0
20260502235221 13 13 0.0 0.0 0.00 0.00 0.00 80 1016.1
20260502234720 13 349 0.0 0.0 0.00 0.00 0.00 80 1016.1
20260502234248 13 278 0.0 0.0 0.00 0.00 0.00 81 1015.9
20260502233733 13 278 0.0 0.0 0.00 0.00 0.00 81 1016.1
20260502233231 13 278 0.0 0.0 0.00 0.00 0.00 81 1015.9
20260502232738 13 278 0.0 0.0 0.00 0.00 0.00 80 1016.0
20260502232234 13 278 0.0 0.0 0.00 0.00 0.00 80 1016.1
20260502231733 13 278 0.0 0.0 0.00 0.00 0.00 78 1016.1
20260502231240 13 278 0.0 0.0 0.00 0.00 0.00 77 1016.1
20260502230800 13 278 0.0 1.6 0.00 0.00 0.00 78 1016.1
20260502230237 13 278 0.0 1.6 0.00 0.00 0.00 79 1016.2
20260502225723 13 278 0.0 1.6 0.00 0.00 0.00 78 1016.1
20260502225222 13 278 0.0 1.6 0.00 0.00 0.00 78 1016.1
20260502224728 14 278 0.0 1.6 0.00 0.00 0.00 76 1016.0
20260502224227 14 278 0.0 1.6 0.00 0.00 0.00 77 1016.0
20260502223755 14 21 0.0 3.2 0.00 0.00 0.00 76 1016.1
20260502223242 14 21 0.0 3.2 0.00 0.00 0.00 75 1016.1
20260502222736 14 23 1.6 3.2 0.00 0.00 0.00 76 1015.9
20260502222242 14 23 0.0 1.6 0.00 0.00 0.00 75 1016.0
20260502221721 14 23 0.0 1.6 0.00 0.00 0.00 75 1016.0
20260502221247 14 23 0.0 1.6 0.00 0.00 0.00 75 1015.9
20260502220726 14 336 0.0 0.0 0.00 0.00 0.00 74 1016.0
20260502220240 14 336 0.0 0.0 0.00 0.00 0.00 75 1016.0
20260502215726 14 233 0.0 0.0 0.00 0.00 0.00 74 1016.0
20260502215225 14 233 0.0 0.0 0.00 0.00 0.00 73 1016.0
20260502214732 14 240 0.0 0.0 0.00 0.00 0.00 74 1016.1
20260502214251 14 281 0.0 0.0 0.00 0.00 0.00 73 1016.1
20260502213736 14 281 0.0 0.0 0.00 0.00 0.00 73 1016.1
20260502213236 15 332 0.0 0.0 0.00 0.00 0.00 71 1016.0
20260502212742 15 332 0.0 0.0 0.00 0.00 0.00 70 1016.1
20260502212221 15 20 0.0 0.0 0.00 0.00 0.00 72 1016.1
20260502211720 15 20 0.0 0.0 0.00 0.00 0.00 72 1016.0
20260502211248 15 20 0.0 0.0 0.00 0.00 0.00 72 1016.1
20260502210726 15 20 0.0 0.0 0.00 0.00 0.00 71 1016.0
20260502210304 15 20 0.0 0.0 0.00 0.00 0.00 69 1015.9
20260502205736 15 295 0.0 0.0 0.00 0.00 0.00 67 1016.0
20260502205235 15 295 0.0 0.0 0.00 0.00 0.00 66 1015.9
20260502204734 15 295 0.0 1.6 0.00 0.00 0.00 66 1015.9
20260502204240 15 295 0.0 1.6 0.00 0.00 0.00 67 1015.9
20260502203739 15 250 0.0 0.0 0.00 0.00 0.00 66 1015.9
20260502203247 15 250 0.0 0.0 0.00 0.00 0.00 66 1015.9
20260502202723 15 250 0.0 0.0 0.00 0.00 0.00 66 1015.9
20260502202221 15 250 0.0 0.0 0.00 0.00 0.00 67 1016.0
20260502201728 15 250 0.0 0.0 0.00 0.00 0.00 67 1015.9
20260502201227 15 250 0.0 1.6 0.00 0.00 0.00 66 1016.0
20260502200727 15 250 0.0 1.6 0.00 0.00 0.00 67 1016.0
20260502200246 15 250 0.0 1.6 0.00 0.00 0.00 67 1016.0
20260502195731 16 250 0.0 0.0 0.00 0.00 0.00 67 1015.9
20260502195238 16 250 0.0 1.6 0.00 0.00 0.00 67 1015.9
20260502194737 16 251 0.0 3.2 0.00 0.00 0.00 67 1015.8
20260502194237 16 251 1.6 3.2 0.00 0.00 0.00 65 1015.8
20260502193744 17 262 0.0 0.0 0.00 0.00 0.00 64 1015.7
20260502193305 17 262 0.0 0.0 0.00 0.00 0.00 64 1015.7
20260502192723 17 262 0.0 0.0 0.00 0.00 0.00 64 1015.7
20260502192222 17 262 0.0 1.6 0.00 0.00 0.00 64 1015.6
20260502191730 17 262 0.0 1.6 0.00 0.00 0.00 63 1015.6
20260502191228 17 262 0.0 0.0 0.00 0.00 0.00 63 1015.6
20260502190727 17 262 0.0 0.0 0.00 0.00 0.00 64 1015.6
20260502190246 18 262 0.0 0.0 0.00 0.00 0.00 65 1015.7
20260502185731 18 262 0.0 0.0 0.00 0.00 0.00 65 1015.6
20260502185257 18 262 0.0 0.0 0.00 0.00 0.00 64 1015.6
20260502184735 18 262 0.0 0.0 0.00 0.00 0.00 64 1015.4
20260502184242 19 262 0.0 0.0 0.00 0.00 0.00 62 1015.5
20260502183721 20 262 0.0 0.0 0.00 0.00 0.00 61 1015.4
20260502183246 20 262 0.0 1.6 0.00 0.00 0.00 60 1015.6
20260502182746 20 262 0.0 1.6 0.00 0.00 0.00 60 1015.5
20260502182230 20 262 0.0 1.6 0.00 0.00 0.00 59 1015.5
20260502181728 20 262 0.0 0.0 0.00 0.00 0.00 59 1015.4
20260502181233 21 262 0.0 0.0 0.00 0.00 0.00 58 1015.4
20260502180732 21 262 0.0 0.0 0.00 0.00 0.00 57 1015.4
20260502180250 21 262 0.0 1.6 0.00 0.00 0.00 55 1015.4
20260502170247 23 263 1.6 6.4 0.00 0.00 0.00 51 1015.6
20260502164245 23 270 4.8 9.7 0.00 0.00 0.00 51 1015.6
20260502163724 23 242 6.4 12.9 0.00 0.00 0.00 51 1015.6
20260502163307 23 262 8.0 12.9 0.00 0.00 0.00 50 1015.7
20260502162724 23 243 6.4 12.9 0.00 0.00 0.00 49 1015.8
20260502162245 23 232 8.0 12.9 0.00 0.00 0.00 47 1015.8
20260502161730 23 243 6.4 12.9 0.00 0.00 0.00 46 1015.9
20260502161236 23 267 9.7 12.9 0.00 0.00 0.00 43 1015.9
20260502160736 24 241 6.4 12.9 0.00 0.00 0.00 42 1016.0
20260502160254 24 238 8.0 12.9 0.00 0.00 0.00 44 1016.1
20260502152230 23 237 4.8 11.3 0.00 0.00 0.00 45 1016.3
20260502151729 23 200 8.0 11.3 0.00 0.00 0.00 45 1016.4
20260502151233 24 238 6.4 11.3 0.00 0.00 0.00 46 1016.3
20260502150728 23 255 8.0 11.3 0.00 0.00 0.00 45 1016.4
20260502150247 24 228 6.4 11.3 0.00 0.00 0.00 47 1016.4
20260502130726 26 212 0.0 8.0 0.00 0.00 0.00 44 1017.8
20260502130236 25 60 0.0 8.0 0.00 0.00 0.00 45 1018.0
20260502123759 25 41 0.0 3.2 0.00 0.00 0.00 48 1018.3
20260502123223 25 142 0.0 3.2 0.00 0.00 0.00 47 1018.4
20260502122721 24 198 1.6 8.0 0.00 0.00 0.00 46 1018.5
20260502122248 24 212 3.2 11.3 0.00 0.00 0.00 50 1018.6
20260502121726 24 270 4.8 11.3 0.00 0.00 0.00 47 1018.6
20260502121230 23 188 0.0 6.4 0.00 0.00 0.00 51 1018.7
20260502120729 23 160 1.6 6.4 0.00 0.00 0.00 48 1018.9
20260502120249 23 278 0.0 8.0 0.00 0.00 0.00 50 1018.8
20260502115729 23 197 4.8 8.0 0.00 0.00 0.00 49 1019.0
20260502115256 23 187 3.2 8.0 0.00 0.00 0.00 49 1019.0
20260502114733 23 216 3.2 9.7 0.00 0.00 0.00 51 1019.0
20260502114300 23 258 8.0 9.7 0.00 0.00 0.00 50 1019.2
20260502113738 23 329 1.6 6.4 0.00 0.00 0.00 50 1019.3
20260502113223 22 179 1.6 6.4 0.00 0.00 0.00 51 1019.3
20260502112723 22 211 1.6 9.7 0.00 0.00 0.00 51 1019.4
20260502112230 22 267 6.4 9.7 0.00 0.00 0.00 50 1019.5
20260502111728 22 233 4.8 12.9 0.00 0.00 0.00 51 1019.6
20260502111228 22 228 6.4 12.9 0.00 0.00 0.00 53 1019.6
20260502110734 22 246 1.6 8.0 0.00 0.00 0.00 53 1019.7
20260502110245 22 203 6.4 9.7 0.00 0.00 0.00 52 1019.8
20260502105759 21 250 4.8 11.3 0.00 0.00 0.00 53 1019.9
20260502105237 21 242 3.2 12.9 0.00 0.00 0.00 54 1019.9
20260502104744 21 241 6.4 12.9 0.00 0.00 0.00 53 1020.1
20260502104223 21 243 6.4 12.9 0.00 0.00 0.00 53 1020.0
20260502103722 21 213 4.8 12.9 0.00 0.00 0.00 54 1020.3
20260502103222 21 265 6.4 12.9 0.00 0.00 0.00 53 1020.3
20260502102728 21 266 8.0 12.9 0.00 0.00 0.00 53 1020.3
20260502102227 21 179 3.2 8.0 0.00 0.00 0.00 54 1020.4
20260502101735 21 199 1.6 12.9 0.00 0.00 0.00 55 1020.5
20260502101232 21 205 6.4 12.9 0.00 0.00 0.00 54 1020.6
20260502100731 21 210 3.2 8.0 0.00 0.00 0.00 53 1020.5
20260502100250 21 216 3.2 8.0 0.00 0.00 0.00 52 1020.6
20260502091233 19 247 6.4 12.9 0.00 0.00 0.00 55 1021.3
20260502090731 19 191 1.6 11.3 0.00 0.00 0.00 55 1021.3
20260502090309 19 239 6.4 16.1 0.00 0.00 0.00 54 1021.4
20260502071239 17 187 0.0 0.0 0.00 0.00 0.00 59 1022.1
20260502070745 17 184 0.0 0.0 0.00 0.00 0.00 63 1022.1
20260502070236 16 184 0.0 0.0 0.00 0.00 0.00 62 1022.0
20260502065723 17 188 0.0 0.0 0.00 0.00 0.00 63 1022.1
20260502065227 16 188 0.0 0.0 0.00 0.00 0.00 66 1022.3
20260502064725 15 188 0.0 0.0 0.00 0.00 0.00 66 1022.2
20260502064225 15 188 0.0 0.0 0.00 0.00 0.00 69 1022.2
20260502063731 14 193 0.0 0.0 0.00 0.00 0.00 72 1022.1
20260502063230 13 193 0.0 0.0 0.00 0.00 0.00 74 1022.0
20260502062729 12 193 0.0 0.0 0.00 0.00 0.00 74 1022.2
20260502062234 12 193 0.0 0.0 0.00 0.00 0.00 74 1022.3
20260502061734 11 193 0.0 0.0 0.00 0.00 0.00 75 1022.3
20260502061239 11 193 0.0 0.0 0.00 0.00 0.00 77 1022.2
20260502060738 11 193 0.0 0.0 0.00 0.00 0.00 77 1022.2
20260502060257 11 194 0.0 0.0 0.00 0.00 0.00 78 1022.2
20260502055739 10 195 0.0 0.0 0.00 0.00 0.00 80 1022.2
20260502055245 10 195 0.0 0.0 0.00 0.00 0.00 81 1022.2
20260502054724 10 195 0.0 0.0 0.00 0.00 0.00 81 1022.2
20260502054223 8 195 0.0 0.0 0.00 0.00 0.00 83 1022.1
20260502053730 8 195 0.0 0.0 0.00 0.00 0.00 82 1022.3
20260502053229 8 195 0.0 0.0 0.00 0.00 0.00 83 1022.3
20260502052729 8 195 0.0 0.0 0.00 0.00 0.00 83 1022.3
20260502052233 8 195 0.0 0.0 0.00 0.00 0.00 83 1022.3
20260502051732 8 195 0.0 0.0 0.00 0.00 0.00 83 1022.1
20260502051232 8 195 0.0 0.0 0.00 0.00 0.00 85 1022.0
20260502050738 7 195 0.0 0.0 0.00 0.00 0.00 85 1022.0
20260502050249 7 195 0.0 0.0 0.00 0.00 0.00 85 1022.0
20260502045722 7 195 0.0 0.0 0.00 0.00 0.00 85 1021.9
20260502045221 7 195 0.0 0.0 0.00 0.00 0.00 85 1021.9
20260502044720 7 195 0.0 0.0 0.00 0.00 0.00 85 1021.9
20260502044224 7 195 0.0 0.0 0.00 0.00 0.00 84 1022.0
20260502043729 7 195 0.0 0.0 0.00 0.00 0.00 85 1022.0
20260502043229 7 195 0.0 0.0 0.00 0.00 0.00 85 1022.0
20260502042735 7 195 0.0 0.0 0.00 0.00 0.00 84 1021.9
20260502042234 7 195 0.0 0.0 0.00 0.00 0.00 84 1021.9
20260502041732 7 195 0.0 0.0 0.00 0.00 0.00 84 1021.9
20260502041235 7 195 0.0 0.0 0.00 0.00 0.00 84 1021.9
20260502040734 7 195 0.0 0.0 0.00 0.00 0.00 84 1021.9
20260502040311 7 195 0.0 0.0 0.00 0.00 0.00 85 1021.9
20260502035743 7 195 0.0 0.0 0.00 0.00 0.00 85 1021.9
20260502035222 7 195 0.0 0.0 0.00 0.00 0.00 84 1021.8
20260502034741 7 195 0.0 0.0 0.00 0.00 0.00 84 1021.8
20260502034242 7 195 0.0 3.2 0.00 0.00 0.00 82 1021.9
20260502033729 8 195 1.6 3.2 0.00 0.00 0.00 81 1021.9
20260502033227 8 83 0.0 1.6 0.00 0.00 0.00 83 1021.7
20260502032726 8 83 0.0 0.0 0.00 0.00 0.00 83 1021.7
20260502032232 8 83 0.0 0.0 0.00 0.00 0.00 83 1021.7
20260502031731 8 83 0.0 0.0 0.00 0.00 0.00 83 1021.8
20260502031237 7 83 0.0 0.0 0.00 0.00 0.00 83 1021.8
20260502030736 8 83 0.0 0.0 0.00 0.00 0.00 82 1021.9
20260502030234 8 83 0.0 0.0 0.00 0.00 0.00 83 1022.0
20260502025741 7 83 0.0 1.6 0.00 0.00 0.00 83 1022.0
20260502025227 7 83 0.0 1.6 0.00 0.00 0.00 83 1022.0
20260502024726 8 83 0.0 1.6 0.00 0.00 0.00 81 1021.9
20260502024226 8 83 0.0 0.0 0.00 0.00 0.00 81 1021.9
20260502023732 8 83 0.0 0.0 0.00 0.00 0.00 81 1021.9
20260502023231 8 83 0.0 0.0 0.00 0.00 0.00 81 1021.8
20260502022738 8 83 0.0 0.0 0.00 0.00 0.00 81 1021.8
20260502022237 8 83 0.0 0.0 0.00 0.00 0.00 81 1021.9